{"data":{"norad_id":65687,"intl_designator":"2025-212M","name":"STARLINK-34856","alt_names":[],"object_type":"PAYLOAD","status":"ACTIVE","operator":null,"country":"US","launch_date":"2025-09-21","launch_site_code":"AFETR","launch_vehicle":null,"mission":null,"orbit_class":"UNKNOWN","rcs_meters":null,"size_class":null,"mass_kg":null,"dimensions":null,"purposes":["comms"],"wikipedia_slug":null,"has_3d_model":false,"image_url":null,"decayed_at":null,"tle_current":{"epoch":"2026-05-25T04:00:03.998880Z","epoch_age_seconds":54678,"freshness":"FRESH","line1":"1 65687U 25212M   26145.16671295 -.00011281  00000+0 -35216-3 0  9993","line2":"2 65687  53.1599 350.2274 0001107  75.2987 355.3608 15.31712360  5819","mean_motion":15.3171236,"eccentricity":0.0001107,"inclination_deg":53.1599,"raan_deg":350.2274,"arg_perigee_deg":75.2987,"mean_anomaly_deg":355.3608,"bstar":-0.00035216,"rev_number":581,"period_min":94.012429331053,"perigee_km":469.94498435186,"apogee_km":471.46131756128,"semimajor_km":6848.8401509566,"source":"CELESTRAK","updated_at":"2026-05-25T13:38:20.895767Z"}}}